CXO

Last updated on Wed Nov 20 2024 00:03:23 GMT+0000 (Coordinated Universal Time)

1 25867U 99040B 24326.52387355 .00000571 00000+0 00000+0 0 9996 2 25867 44.7729 141.3483 8721311 304.3692 359.8417 0.37806941 15154
UTC large
Height (km)
Speed (km/s)
/
Latitude / Longitude
Inclination (degrees)
Orbital Period (minutes)
Azimuth
Elevation
Range (km)
Doppler Factor

Next 0 passes for location: London (51.5072 / 0.1276)

Sorry there are no passes over London.